Corsicana, TX

5:19 AM CST on December 10, 2019 (GMT -0600)
Campbell-Corsicana Municipal

Weather History for KCRS - October, 2019

Change the Weather History Date:

Tuesday, October 22, 2019

  Actual Average (WUND) Record (WUND)
Temperature  
Mean Temperature 60 °F -  
Max Temperature 73 °F - - (-1)
Min Temperature 48 °F - - (-1)
Degree Days  
Heating Degree Days 4    
Growing Degree Days 10 (Base 50)    
Moisture  
Dew Point 40 °F    
Average Humidity 52    
Maximum Humidity 86    
Minimum Humidity 21    
Precipitation  
Precipitation 0.00 in - - ()
Sea Level Pressure  
Sea Level Pressure 30.17 in    
Wind  
Wind Speed 5 mph (NE)    
Max Wind Speed 9 mph    
Max Gust Speed -    
Visibility 10 miles    
Events      
Averages and records for this station are not official NWS values.
T = Trace of Precipitation, MM = Missing Value Source: NWS Daily Summary

Daily Weather History Graph

Daily Weather History Graph

Search for Another Location

Airport or City:

Astronomy

Oct. 22, 2019 Rise Set
Actual Time 7:34 AM CDT 6:45 PM CDT
Civil Twilight 7:09 AM CDT 7:10 PM CDT
Nautical Twilight 6:40 AM CDT 7:38 PM CDT
Astronomical Twilight 6:12 AM CDT 8:07 PM CDT
Moon 1:14 AM CDT (10/22) 3:28 PM CDT (10/22)
Length of Visible Light 12h 01m
Length of Day
11h 11m
Last Quarter, 37% of the Moon is Illuminated
Oct 22
Last Quarter
Oct 27
New
Nov 4
First Quarter
Nov 12
Full
Nov 19
Last Quarter

Hourly Weather History & Observations

Time (CDT) Temp. Dew Point Humidity Pressure Visibility Wind Dir Wind Speed Gust Speed Precip Events Conditions
12:53 AM 53.1 °F 45.0 °F 74% 30.10 in 10.0 mi WSW 4.6 mph - N/A   Clear
1:53 AM 50.0 °F 44.1 °F 80% 30.10 in 10.0 mi WSW 5.8 mph - N/A   Clear
2:53 AM 50.0 °F 44.1 °F 80% 30.10 in 10.0 mi SW 6.9 mph - N/A   Clear
3:53 AM 48.9 °F 43.0 °F 80% 30.10 in 10.0 mi West 5.8 mph - N/A   Clear
4:53 AM 48.9 °F 45.0 °F 86% 30.11 in 10.0 mi West 3.5 mph - N/A   Clear
5:53 AM 50.0 °F 43.0 °F 77% 30.14 in 10.0 mi NW 5.8 mph - N/A   Clear
6:53 AM 50.0 °F 43.0 °F 77% 30.18 in 10.0 mi North 6.9 mph - N/A   Clear
7:53 AM 48.9 °F 42.1 °F 77% 30.21 in 10.0 mi NNW 3.5 mph - N/A   Clear
8:53 AM 54.0 °F 44.1 °F 69% 30.24 in 10.0 mi North 5.8 mph - N/A   Clear
9:53 AM 60.1 °F 42.1 °F 51% 30.27 in 10.0 mi NNE 4.6 mph - N/A   Clear
10:53 AM 64.9 °F 37.9 °F 37% 30.27 in 10.0 mi ENE 6.9 mph - N/A   Clear
11:53 AM 69.1 °F 37.9 °F 32% 30.28 in 10.0 mi ENE 6.9 mph - N/A   Clear
12:53 PM 71.1 °F 34.0 °F 26% 30.26 in 10.0 mi ENE 9.2 mph - N/A   Clear
1:53 PM 72.0 °F 33.1 °F 24% 30.22 in 10.0 mi NE 9.2 mph - N/A   Clear
2:53 PM 73.9 °F 30.9 °F 21% 30.19 in 10.0 mi ENE 5.8 mph - N/A   Clear
3:53 PM 73.9 °F 32.0 °F 21% 30.17 in 10.0 mi Variable 3.5 mph - N/A   Clear
4:53 PM 73.9 °F 33.1 °F 22% 30.16 in 10.0 mi Variable 4.6 mph - N/A   Clear
5:53 PM 72.0 °F 34.0 °F 25% 30.15 in 10.0 mi East 3.5 mph - N/A   Clear
6:53 PM 66.0 °F 39.0 °F 37% 30.14 in 10.0 mi Calm Calm - N/A   Clear
7:53 PM 63.0 °F 37.0 °F 38% 30.14 in 10.0 mi Calm Calm - N/A   Clear
8:53 PM 60.1 °F 37.0 °F 42% 30.14 in 10.0 mi East 3.5 mph - N/A   Clear
9:53 PM 59.0 °F 42.1 °F 53% 30.13 in 10.0 mi East 4.6 mph - N/A   Clear
10:53 PM 57.0 °F 44.1 °F 62% 30.13 in 10.0 mi ESE 8.1 mph - N/A   Clear
11:53 PM 57.0 °F 44.1 °F 62% 30.12 in 10.0 mi SE 8.1 mph - N/A   Clear